sat.trackr.live / text

‹ back to catalog

STARLINK-36890

NORAD 68258 · 2026-054AC

PAYLOAD ACTIVE UNKNOWN

§ Identity

Operator
Country
US
Launch date
2026-03-17
Launch site
AFETR
Launch vehicle
Mass (kg)
RCS (m²)

Purposes: comms

External: N2YO · Heavens-Above · Gunter

§ Orbital elements

Epoch: 2026-09-19T23:04:09.476256Z

Period
93.85 min
Inclination
53.1570°
Eccentricity
0.0001504
Mean motion
15.34370457 rev/d
Perigee alt
461.8 km
Apogee alt
463.8 km
Semi-major
6,840.9 km
B*
5.3792e-4
RAAN
112.5349°
Arg perigee
81.1773°
Mean anomaly
278.9400°
Rev number
2,876

§ Raw data

STARLINK-368901 68258U 26054AC  26262.96122079  .00017825  00000+0  53792-3 0  99912 68258  53.1570 112.5349 0001504  81.1773 278.9400 15.34370457 28766

JSON: /api/v1/satellites/68258 · /tle

For live sub-satellite position, see the globe view (requires WebGL).

§ Visibility from observer

Set your observer location to see the next 7 days of passes ≥ 10°. The values pass through the URL so the page stays shareable.

No JS? Fill the form by hand. The geolocation button needs JavaScript.